Location: Mount Cross
(36.6390°N, 79.4878°W)
Time: 01:31:22
(UTC+00:00)

SR - Pass Details

Date: 03 April 2023
Orbit: 580 x 867 km, 66.7° (Epoch: 08 June)

Event Time Altitude Azimuth Distance (km) Brightness Sun altitude
Rises 05:28:15 0° 221° (SW) 3,013 - -48.1°
Reaches altitude 10° 05:30:43 10° 227° (SW) 2,057 - -48.1°
Maximum altitude 05:35:08 45° 301° (WNW) 852 - -48.0°
Drops below altitude 10° 05:39:19 10° 14° (NNE) 1,943 - -47.9°
Sets 05:41:35 0° 21° (NNE) 2,827 - -47.9°
